Location: Batang Balui
(2.7000°N, 113.7833°E)
Time: 14:57:23
(UTC+00:00)

CZ-6A DEB - Pass Details

Date: 11 December 2023
Orbit: 666 x 823 km, 98.6° (Epoch: 23 February)

Event Time Altitude Azimuth Distance (km) Brightness Sun altitude
Rises 11:34:19 0° 196° (SSW) 3,275 ? -18.6°
Reaches altitude 10° 11:37:13 10° 213° (SSW) 2,373 ? -19.3°
Maximum altitude 11:40:56 20° 258° (WSW) 1,817 ? -20.1°
Drops below altitude 10° 11:44:44 10° 304° (WNW) 2,425 ? -21.0°
Sets 11:47:44 0° 320° (NW) 3,370 ? -21.7°
